TimeCST,TemperatureF,Dew PointF,Humidity,Sea Level PressureIn,VisibilityMPH,Wind Direction,Wind SpeedMPH,Gust SpeedMPH,PrecipitationIn,Events,Conditions,WindDirDegrees,DateUTC
12:53 AM,9.0,3.0,77,29.95,10.0,WNW,24.2,-,N/A,,Overcast,300,2013-12-05 06:53:00
1:53 AM,8.1,1.9,76,30.03,10.0,WNW,20.7,32.2,N/A,,Overcast,290,2013-12-05 07:53:00
2:51 AM,8.6,1.4,73,29.99,10.0,WNW,24.2,-,N/A,,Overcast,290,2013-12-05 08:51:00
2:53 AM,8.1,1.9,76,30.07,10.0,WNW,23.0,-,N/A,,Overcast,290,2013-12-05 08:53:00
3:09 AM,8.1,1.9,76,30.00,10.0,WNW,24.2,29.9,N/A,,Overcast,290,2013-12-05 09:09:00
3:23 AM,8.1,1.0,73,30.02,10.0,WNW,24.2,33.4,N/A,,Overcast,290,2013-12-05 09:23:00
3:53 AM,7.0,1.0,77,30.11,10.0,WNW,18.4,-,N/A,,Overcast,290,2013-12-05 09:53:00
4:44 AM,6.1,-0.0,76,30.04,10.0,West,20.7,-,N/A,,Mostly Cloudy,280,2013-12-05 10:44:00
4:53 AM,6.1,-0.0,76,30.12,10.0,West,21.9,29.9,N/A,,Partly Cloudy,280,2013-12-05 10:53:00
5:17 AM,5.0,-0.0,80,30.06,10.0,WNW,19.6,28.8,N/A,,Mostly Cloudy,290,2013-12-05 11:17:00
5:53 AM,3.9,-0.9,80,30.16,10.0,West,19.6,26.5,N/A,,Overcast,280,2013-12-05 11:53:00
6:37 AM,3.9,-2.0,76,30.09,10.0,WNW,18.4,26.5,N/A,,Scattered Clouds,290,2013-12-05 12:37:00
6:53 AM,3.0,-2.0,80,30.18,10.0,WNW,19.6,-,N/A,,Partly Cloudy,290,2013-12-05 12:53:00
7:53 AM,3.0,-2.9,76,30.20,10.0,WNW,18.4,-,N/A,,Clear,290,2013-12-05 13:53:00
8:53 AM,3.9,-2.0,76,30.23,10.0,WNW,25.3,32.2,N/A,,Clear,290,2013-12-05 14:53:00
9:53 AM,5.0,-2.0,73,30.24,10.0,WNW,27.6,35.7,N/A,,Clear,300,2013-12-05 15:53:00
10:53 AM,7.0,-0.0,73,30.29,10.0,WNW,26.5,32.2,N/A,,Clear,290,2013-12-05 16:53:00
11:53 AM,8.1,1.0,73,30.30,10.0,WNW,23.0,-,N/A,,Scattered Clouds,290,2013-12-05 17:53:00
12:53 PM,9.0,-0.0,67,30.28,10.0,WNW,24.2,29.9,N/A,,Clear,300,2013-12-05 18:53:00
1:53 PM,9.0,1.0,70,30.28,10.0,WNW,19.6,29.9,N/A,,Clear,300,2013-12-05 19:53:00
2:53 PM,8.1,-0.9,67,30.28,10.0,WNW,21.9,32.2,N/A,,Clear,300,2013-12-05 20:53:00
3:53 PM,7.0,-2.0,67,30.30,10.0,WNW,18.4,-,N/A,,Clear,290,2013-12-05 21:53:00
4:53 PM,5.0,-4.0,66,30.33,10.0,WNW,19.6,-,N/A,,Clear,290,2013-12-05 22:53:00
5:53 PM,3.9,-4.0,70,30.38,10.0,West,16.1,23.0,N/A,,Clear,280,2013-12-05 23:53:00
6:53 PM,1.9,-5.1,72,30.42,10.0,West,10.4,-,N/A,,Clear,270,2013-12-06 00:53:00
7:53 PM,1.9,-6.0,69,30.42,10.0,West,15.0,-,N/A,,Clear,280,2013-12-06 01:53:00
8:53 PM,1.9,-6.0,69,30.45,10.0,West,13.8,-,N/A,,Clear,270,2013-12-06 02:53:00
9:53 PM,-0.0,-8.0,69,30.44,10.0,WNW,15.0,-,N/A,,Clear,300,2013-12-06 03:53:00
10:53 PM,-0.9,-8.0,72,30.48,10.0,WNW,10.4,-,N/A,,Clear,290,2013-12-06 04:53:00
11:53 PM,-2.0,-9.0,72,30.47,10.0,WNW,12.7,-,N/A,,Clear,290,2013-12-06 05:53:00